SCP
0 0 -0 -0 -0 -0 0 -0 0 0 0 0 0 0 0 0 0 0 0 0 0 0 0 0 0 0 0 0 0 0 0 0 0 0 0 0 0 0 0 0 0 0 0 0
0 0 0 -0 -0 0 -0 -0 0 0 0 0 0 0 0 0 0 0 0 0 0 0 0 0 0 0 0 0 0 0 0 0 0 0 0 0 0 0 0 0 0 0 0 0
0 0 0 0 0 0 -0 -0 -0 0 0 0 0 0 0 0 0 0 0 0 0 0 0 0 0 0 0 0 0 0 0 0 0 0 0 0 0 0 0 0 0 0 0 0
0 0 0 0 0 0 -0 -0 0 0 0 0 0 0 0 0 0 0 0 0 0 0 0 0 0 0 0 0 0 0 0 0 0 0 0 0 0 0 0 0 0 0 0 0
0 0 0 0 0 -0 -0 -0 0 0 0 0 0 0 0 0 0 0 0 0 0 0 0 0 0 0 0 0 0 0 0 0 0 0 0 0 0 0 0 0 0 0 0 0
0 0 0 0 0 -0 -0 -0 0 0 0 0 0 0 0 0 0 0 0 0 0 0 0 0 0 0 0 0 0 0 0 0 0 0 0 0 0 0 0 0 0 0 0 0
0 0 0 0 0 0 -0 -0 -0 0 0 0 0 0 0 0 0 0 0 0 0 0 0 0 0 0 0 0 0 0 0 0 0 0 0 0 0 0 0 0 0 0 0 0
0 0 0 0 0 0 -0 -0 -0 0 0 0 0 0 0 0 0 0 0 0 0 0 0 0 0 0 0 0 0 0 0 0 0 0 0 0 0 0 0 0 0 0 0 0
0 0 0 0 0 0 -0 -0 -0 -0 0 0 0 0 0 0 0 0 0 0 0 0 0 0 0 0 0 0 0 0 0 0 0 0 0 0 0 0 0 0 0 0 0 0
0 0 0 0 0 0 -0 0 0 0 0 0 0 0 0 0 0 0 0 0 0 0 0 0 0 0 0 0 0 0 0 0 0 0 0 0 0 0 0 0 0 0 0 0
0 0 0 0 0 0 0 0 0 0 0 0 0 0 -0 -0 -0 -0 -0 -0 -0 0 0 0 0 0 0 0 0 0 0 0 0 0 0 0 0 0 0 0 0 0 0 0
0 0 0 0 0 0 0 0 0 0 0 0 0 0 0 0 0 0 0 0 0 0 -0 0 0 0 0 0 0 0 0 0 0 0 0 0 0 0 0 0 0 0 0 0
0 -0 -0 0 0 0 0 0 0 0 0 0 0 0 0 0 0 0 0 0 0 0 0 0 0 0 0 0 0 0 -0 -0 0 0 0 0 0 0 0 0 0 0 0 0
-0 -0 -0 -0 0 0 0 0 0 0 0 0 0 0 0 0 0 0 0 -0 0 0 0 0 0 0 0 0 0 0 0 -0 -0 -0 0 0 0 0 0 0 0 0 0 0
-0 -0 -0 0 0 0 0 0 0 0 0 0 0 0 0 0 0 0 0 0 0 0 0 0 0 0 0 0 -0 0 0 0 -0 -0 0 0 0 0 0 0 0 0 0 0
-0 -0 -0 0 0 0 0 0 0 0 0 0 0 0 0 0 0 0 0 0 0 0 0 0 0 0 0 0 0 -0 0 0 0 0 0 0 0 0 0 0 0 0 0 0
-0 -0 0 0 0 0 0 0 0 0 0 0 0 0 0 0 0 0 0 0 0 0 0 0 0 0 0 0 0 0 0 -0 0 -0 -0 -0 -0 0 -0 0 0 0 0 0
-0 -0 0 0 0 0 0 0 0 0 0 0 0 0 0 0 0 0 0 0 0 0 0 0 0 0 0 0 0 0 0 -0 -0 -0 -0 -0 0 0 0 0 -0 0 0 -0
-0 0 0 0 0 0 0 0 0 0 0 0 0 0 0 0 0 0 0 0 0 0 0 0 0 0 0 0 0 0 0 0 0 0 -0 -0 0 0 0 -0 -0 -0 -0 -0
-0 0 0 0 0 0 0 0 0 0 0 0 0 0 0 0 0 0 0 0 0 0 0 0 0 0 0 0 0 0 0 0 0 0 0 -0 -0 0 0 0 0 0 -0 -0
-0 0 0 0 -0 0 0 0 0 0 0 0 0 0 0 0 0 0 0 0 0 0 0 0 0 0 0 0 0 0 0 0 0 -0 -0 -0 -0 -0 0 0 -0 -0 -0 -0
0 0 0 0 -0 0 0 0 0 0 0 0 0 0 0 0 0 0 0 0 0 0 0 0 0 0 0 0 0 0 0 -0 -0 -0 -0 0 0 0 0 0 0 0 0 -0
0 0 -0 -0 0 0 0 0 0 0 0 0 0 0 0 0 0 0 0 0 0 0 0 0 0 0 0 0 0 0 0 -0 -0 -0 0 0 0 0 0 0 0 0 0 0
-0 -0 -0 -0 0 0 0 0 0 0 0 0 0 0 0 0 0 0 0 0 0 0 0 0 0 0 0 0 0 -0 -0 0 0 -0 0 -0 0 0 0 0 0 0 0 0
-0 -0 -0 0 0 0 0 0 0 0 0 0 0 0 0 0 0 0 0 0 0 0 0 0 0 0 0 0 0 0 0 0 0 0 0 0 0 0 0 0 0 0 0 0
-0 -0 0 0 0 0 0 0 0 0 0 0 0 0 0 0 0 0 0 0 0 0 0 0 0 0 0 0 0 0 0 0 0 0 0 0 0 0 0 0 0 0 0 0
-0 -0 -0 0 0 0 0 0 0 0 0 0 0 0 0 0 0 0 0 0 0 0 0 0 0 0 0 0 0 0 0 0 0 0 0 0 0 -0 0 0 0 0 0 0
Wind_Speed_500mb
68 68 69 72 75 71 66 29 5 31 29 8 7 5 14 12 12 14 8 6 6 6 5 7 8 12 8 15 2 6 3 5 13 22 4 3 1 14 25 17 21 6 7 16
65 64 66 67 69 70 63 26 14 27 23 7 8 13 9 7 16 14 13 7 11 9 7 9 10 8 7 25 4 4 10 8 15 13 8 7 11 10 6 4 4 25 16 15
64 67 68 66 65 61 43 17 9 16 26 19 8 12 7 11 21 3 14 13 10 10 6 4 10 7 6 21 15 13 6 11 16 25 14 4 8 11 13 18 17 27 28 34
63 65 66 68 67 61 35 18 8 9 9 12 13 7 12 12 13 14 20 6 21 13 9 11 7 13 18 9 18 10 4 18 14 24 23 17 27 30 24 28 34 29 31 31
60 62 66 69 68 59 36 12 13 14 9 12 15 14 9 12 11 9 12 12 27 19 11 10 11 18 7 9 16 14 10 12 17 35 29 26 40 43 43 42 42 40 39 36
56 58 60 62 61 57 27 24 16 8 14 13 10 5 14 15 23 13 8 30 30 24 21 32 38 43 43 39 26 15 11 6 5 33 17 23 31 41 44 41 33 33 37 38
52 51 51 52 52 48 40 34 20 11 6 14 10 25 25 19 20 27 43 47 31 15 43 48 43 45 51 54 48 45 23 17 8 14 7 27 23 10 25 39 39 36 32 21
47 46 45 42 42 39 35 30 25 8 6 16 23 24 25 35 33 28 30 34 23 35 30 17 18 13 14 30 50 48 47 30 16 12 21 31 36 3 8 16 24 27 30 29
39 39 40 39 35 37 36 25 22 7 12 3 19 21 27 22 22 20 25 33 38 19 15 12 15 11 15 10 4 10 39 34 26 11 15 26 18 7 46 14 31 20 25 19
33 36 38 37 36 35 34 30 24 12 12 16 23 21 17 17 23 15 33 21 19 16 7 13 17 23 18 15 20 20 9 15 34 29 17 17 8 11 6 21 1 18 24 27
30 32 34 35 35 33 35 31 24 18 16 45 22 19 28 26 26 16 26 20 2 8 8 6 7 10 5 10 15 19 12 8 11 21 24 36 22 9 22 13 18 17 15 23
28 30 35 36 36 35 37 35 31 26 28 42 54 28 26 36 36 36 13 14 15 9 8 4 6 10 5 10 8 5 13 9 10 7 6 14 14 18 25 22 24 13 11 12
28 31 34 36 35 33 33 37 33 31 25 35 11 15 25 30 23 23 19 14 14 14 18 7 3 8 5 6 7 9 6 8 8 16 2 22 36 27 23 20 18 18 9 31
32 35 37 37 34 34 32 34 20 20 16 11 17 35 20 14 18 21 36 52 39 31 21 8 5 7 8 6 10 14 17 6 9 14 27 34 10 30 19 9 8 17 28 38
36 38 38 35 33 30 30 14 7 28 15 10 32 38 12 22 30 34 25 31 42 25 9 9 7 6 6 7 6 11 10 9 7 7 11 16 23 17 3 18 31 38 53 55
41 39 38 33 29 22 26 5 5 31 31 14 8 22 25 26 39 38 26 26 25 21 11 8 8 11 6 6 6 12 13 16 18 18 18 18 11 11 22 37 42 43 45 46
41 41 35 30 21 9 8 6 20 33 24 9 13 17 15 37 29 22 7 9 11 16 10 9 8 10 15 5 8 11 25 22 19 30 24 15 22 14 31 44 44 42 47 44
40 38 27 17 8 12 4 15 21 17 12 8 7 13 18 17 14 11 8 8 7 14 7 7 6 6 9 8 12 27 31 15 20 55 47 52 44 26 28 28 34 37 37 32
34 24 15 7 9 11 19 21 10 12 6 8 6 8 11 24 15 14 9 7 2 5 4 4 5 4 6 9 22 25 17 21 2 8 21 30 19 24 20 28 33 37 32 24
33 20 9 6 21 23 14 6 8 8 4 5 10 9 7 19 16 9 10 8 5 2 2 3 3 4 22 14 13 29 18 25 23 26 29 33 32 32 31 30 29 30 29 25
26 15 6 18 18 11 7 5 7 9 6 5 9 14 17 19 8 8 12 6 7 9 9 9 8 12 42 41 31 18 17 22 24 31 32 34 35 34 35 33 33 33 30 27
21 20 13 16 15 9 8 7 6 5 8 14 16 28 25 15 11 8 15 7 9 8 22 8 8 17 45 37 37 37 36 50 42 44 47 47 46 46 45 42 41 37 35 33
14 16 10 11 13 13 9 10 5 9 12 12 32 33 10 10 9 9 7 10 9 18 9 7 7 39 38 33 35 45 47 38 38 37 39 37 37 39 42 45 43 38 36 33
10 11 12 8 8 4 7 11 15 26 20 40 44 17 8 9 8 7 9 8 7 9 12 12 18 40 29 28 33 43 33 27 24 24 22 21 21 21 20 23 27 27 24 22
10 10 9 5 11 25 31 39 35 41 39 32 17 12 6 5 5 8 6 6 9 10 11 10 34 27 26 29 37 29 19 13 22 24 15 11 10 12 12 8 7 5 7 8
8 9 11 21 19 32 32 40 38 34 35 13 4 6 6 9 7 10 12 6 9 6 15 31 27 23 30 24 16 8 6 6 19 21 18 8 6 6 4 4 5 3 3 2
6 7 19 21 16 29 37 43 34 33 15 5 4 8 8 9 6 5 7 6 4 17 26 29 32 24 19 16 12 10 15 14 12 22 23 9 4 5 5 10 12 10 10 8
Wind_Direction_500mb
359 2 4 3 1 2 8 5 13 353 3 28 31 37 329 328 336 360 338 298 279 266 285 258 247 243 262 359 247 223 137 197 232 221 113 303 196 243 206 221 217 231 280 262
360 2 3 3 3 5 5 354 335 4 2 59 23 332 315 319 9 3 348 325 5 1 296 281 244 237 92 15 328 231 181 216 238 226 200 167 222 186 186 108 71 223 242 252
359 359 0 3 7 9 7 5 356 7 52 67 15 352 344 335 347 87 0 349 25 350 307 302 287 308 18 344 3 356 211 199 227 242 259 139 204 201 202 228 239 251 241 269
358 358 1 3 7 11 16 27 56 18 348 0 354 324 352 331 345 348 4 125 39 5 297 311 287 7 333 325 8 9 340 248 225 251 250 241 264 257 220 218 239 239 259 240
359 0 1 5 5 13 32 41 5 349 359 324 336 10 39 7 348 319 338 6 341 333 283 314 310 340 304 292 332 340 359 272 267 267 263 248 258 255 252 237 241 244 258 259
2 5 5 6 9 17 45 39 13 2 18 355 335 49 351 322 339 294 303 339 319 303 312 311 293 281 267 264 281 297 299 287 230 260 254 251 258 243 236 234 229 233 240 257
7 8 9 10 14 26 36 36 37 17 353 336 324 317 317 317 319 295 295 303 292 301 316 306 285 262 254 250 246 238 249 255 249 265 242 238 258 328 248 237 236 224 246 251
9 9 12 14 13 22 33 40 39 33 307 291 310 327 323 312 313 298 297 296 286 310 302 287 281 245 242 237 236 227 218 229 242 231 224 259 264 260 231 214 244 229 234 245
10 14 18 19 15 11 17 22 15 2 303 304 321 305 301 303 308 311 295 305 302 315 280 251 251 255 301 258 249 226 218 228 219 195 225 234 283 278 259 244 260 246 231 208
16 17 17 17 11 4 6 1 350 341 294 286 314 302 308 299 300 289 300 319 310 307 255 252 253 256 265 253 247 274 187 211 218 225 237 257 283 336 334 206 229 336 228 212
11 10 9 8 4 357 353 351 348 329 296 295 282 292 280 279 269 267 299 309 67 265 255 275 277 273 12 271 266 266 254 235 200 222 234 241 15 296 240 332 319 312 227 199
0 356 359 358 352 347 345 343 344 327 291 280 304 296 287 263 278 274 246 257 295 307 306 318 318 309 270 310 289 349 254 348 306 288 220 352 334 300 302 293 275 299 240 192
349 346 350 349 345 343 338 333 337 328 300 311 312 322 314 305 289 268 239 245 231 222 241 296 301 284 318 281 279 302 171 116 337 337 25 308 314 308 299 298 276 272 225 155
339 342 339 337 339 339 337 333 340 10 319 294 295 328 319 281 292 293 258 260 258 249 267 254 261 280 199 276 298 288 288 240 219 239 272 313 316 333 307 284 281 152 140 140
343 336 334 333 334 335 335 336 36 5 359 290 297 314 292 290 319 299 294 274 249 242 232 215 232 243 253 248 285 269 256 280 256 272 333 300 318 330 179 134 125 126 124 117
339 336 334 332 330 338 343 329 308 345 340 324 299 305 304 308 317 319 306 283 246 208 205 214 233 246 248 265 265 263 283 328 295 290 320 325 326 87 120 111 106 109 113 118
336 333 334 332 328 336 356 348 317 327 324 302 296 286 288 323 326 329 291 285 192 196 208 222 228 217 199 247 260 300 312 320 340 306 274 179 147 72 93 101 102 103 106 102
338 337 336 344 19 339 310 315 327 320 314 293 294 280 305 325 320 316 288 273 210 212 220 222 220 193 218 253 276 323 306 29 58 65 100 123 125 101 102 106 116 114 110 117
345 349 356 3 357 341 321 318 335 319 302 307 293 300 316 326 316 311 304 308 256 201 238 233 200 197 239 295 333 20 77 112 222 30 105 138 113 108 104 118 117 116 113 114
2 360 357 329 328 333 332 354 351 344 316 265 259 278 284 314 326 303 308 301 314 304 79 279 280 40 319 351 106 132 93 53 60 74 92 105 102 108 115 112 111 114 113 106
2 345 315 328 337 357 354 342 21 343 285 264 286 298 307 321 316 309 327 315 331 357 14 360 26 38 18 43 76 82 83 89 79 94 104 105 107 105 105 103 102 101 99 94
347 338 335 355 11 359 359 4 347 10 319 319 316 313 313 311 320 308 338 338 328 42 342 19 32 10 16 39 56 70 75 90 88 90 94 98 99 91 87 91 94 93 91 93
4 6 3 10 1 26 18 326 302 316 308 295 320 324 312 322 330 311 338 13 7 326 18 40 22 2 19 43 67 76 87 81 80 82 86 88 90 89 87 87 82 82 86 88
12 17 21 30 0 332 284 280 280 288 278 303 315 305 327 324 326 349 5 355 359 23 18 25 358 355 13 64 82 92 79 60 60 70 68 72 82 84 86 85 88 86 90 98
36 28 20 345 303 299 301 306 300 311 311 318 314 304 305 304 334 4 330 36 54 18 4 341 338 9 72 89 91 73 20 99 74 54 51 27 44 61 60 70 82 87 86 98
45 48 344 325 309 330 333 330 320 341 334 345 331 314 333 36 357 23 21 38 34 359 325 336 4 41 74 81 111 20 31 352 21 355 3 12 55 59 33 16 23 33 29 340
28 346 345 346 313 318 324 332 335 348 356 36 14 36 14 299 28 45 10 39 338 333 356 16 25 20 25 52 51 37 29 23 53 38 31 27 43 81 87 89 68 70 68 46
Wind_Speed_850mb
68 68 69 72 75 71 66 29 5 31 29 8 7 5 14 12 12 14 8 6 6 6 5 7 8 12 8 15 2 6 3 5 13 22 4 3 1 14 25 17 21 6 7 16
65 64 66 67 69 70 63 26 14 27 23 7 8 13 9 7 16 14 13 7 11 9 7 9 10 8 7 25 4 4 10 8 15 13 8 7 11 10 6 4 4 25 16 15
64 67 68 66 65 61 43 17 9 16 26 19 8 12 7 11 21 3 14 13 10 10 6 4 10 7 6 21 15 13 6 11 16 25 14 4 8 11 13 18 17 27 28 34
63 65 66 68 67 61 35 18 8 9 9 12 13 7 12 12 13 14 20 6 21 13 9 11 7 13 18 9 18 10 4 18 14 24 23 17 27 30 24 28 34 29 31 31
60 62 66 69 68 59 36 12 13 14 9 12 15 14 9 12 11 9 12 12 27 19 11 10 11 18 7 9 16 14 10 12 17 35 29 26 40 43 43 42 42 40 39 36
56 58 60 62 61 57 27 24 16 8 14 13 10 5 14 15 23 13 8 30 30 24 21 32 38 43 43 39 26 15 11 6 5 33 17 23 31 41 44 41 33 33 37 38
52 51 51 52 52 48 40 34 20 11 6 14 10 25 25 19 20 27 43 47 31 15 43 48 43 45 51 54 48 45 23 17 8 14 7 27 23 10 25 39 39 36 32 21
47 46 45 42 42 39 35 30 25 8 6 16 23 24 25 35 33 28 30 34 23 35 30 17 18 13 14 30 50 48 47 30 16 12 21 31 36 3 8 16 24 27 30 29
39 39 40 39 35 37 36 25 22 7 12 3 19 21 27 22 22 20 25 33 38 19 15 12 15 11 15 10 4 10 39 34 26 11 15 26 18 7 46 14 31 20 25 19
33 36 38 37 36 35 34 30 24 12 12 16 23 21 17 17 23 15 33 21 19 16 7 13 17 23 18 15 20 20 9 15 34 29 17 17 8 11 6 21 1 18 24 27
30 32 34 35 35 33 35 31 24 18 16 45 22 19 28 26 26 16 26 20 2 8 8 6 7 10 5 10 15 19 12 8 11 21 24 36 22 9 22 13 18 17 15 23
28 30 35 36 36 35 37 35 31 26 28 42 54 28 26 36 36 36 13 14 15 9 8 4 6 10 5 10 8 5 13 9 10 7 6 14 14 18 25 22 24 13 11 12
28 31 34 36 35 33 33 37 33 31 25 35 11 15 25 30 23 23 19 14 14 14 18 7 3 8 5 6 7 9 6 8 8 16 2 22 36 27 23 20 18 18 9 31
32 35 37 37 34 34 32 34 20 20 16 11 17 35 20 14 18 21 36 52 39 31 21 8 5 7 8 6 10 14 17 6 9 14 27 34 10 30 19 9 8 17 28 38
36 38 38 35 33 30 30 14 7 28 15 10 32 38 12 22 30 34 25 31 42 25 9 9 7 6 6 7 6 11 10 9 7 7 11 16 23 17 3 18 31 38 53 55
41 39 38 33 29 22 26 5 5 31 31 14 8 22 25 26 39 38 26 26 25 21 11 8 8 11 6 6 6 12 13 16 18 18 18 18 11 11 22 37 42 43 45 46
41 41 35 30 21 9 8 6 20 33 24 9 13 17 15 37 29 22 7 9 11 16 10 9 8 10 15 5 8 11 25 22 19 30 24 15 22 14 31 44 44 42 47 44
40 38 27 17 8 12 4 15 21 17 12 8 7 13 18 17 14 11 8 8 7 14 7 7 6 6 9 8 12 27 31 15 20 55 47 52 44 26 28 28 34 37 37 32
34 24 15 7 9 11 19 21 10 12 6 8 6 8 11 24 15 14 9 7 2 5 4 4 5 4 6 9 22 25 17 21 2 8 21 30 19 24 20 28 33 37 32 24
33 20 9 6 21 23 14 6 8 8 4 5 10 9 7 19 16 9 10 8 5 2 2 3 3 4 22 14 13 29 18 25 23 26 29 33 32 32 31 30 29 30 29 25
26 15 6 18 18 11 7 5 7 9 6 5 9 14 17 19 8 8 12 6 7 9 9 9 8 12 42 41 31 18 17 22 24 31 32 34 35 34 35 33 33 33 30 27
21 20 13 16 15 9 8 7 6 5 8 14 16 28 25 15 11 8 15 7 9 8 22 8 8 17 45 37 37 37 36 50 42 44 47 47 46 46 45 42 41 37 35 33
14 16 10 11 13 13 9 10 5 9 12 12 32 33 10 10 9 9 7 10 9 18 9 7 7 39 38 33 35 45 47 38 38 37 39 37 37 39 42 45 43 38 36 33
10 11 12 8 8 4 7 11 15 26 20 40 44 17 8 9 8 7 9 8 7 9 12 12 18 40 29 28 33 43 33 27 24 24 22 21 21 21 20 23 27 27 24 22
10 10 9 5 11 25 31 39 35 41 39 32 17 12 6 5 5 8 6 6 9 10 11 10 34 27 26 29 37 29 19 13 22 24 15 11 10 12 12 8 7 5 7 8
8 9 11 21 19 32 32 40 38 34 35 13 4 6 6 9 7 10 12 6 9 6 15 31 27 23 30 24 16 8 6 6 19 21 18 8 6 6 4 4 5 3 3 2
6 7 19 21 16 29 37 43 34 33 15 5 4 8 8 9 6 5 7 6 4 17 26 29 32 24 19 16 12 10 15 14 12 22 23 9 4 5 5 10 12 10 10 8
Wind_Direction_850mb
359 2 4 3 1 2 8 5 13 353 3 28 31 37 329 328 336 360 338 298 279 266 285 258 247 243 262 359 247 223 137 197 232 221 113 303 196 243 206 221 217 231 280 262
360 2 3 3 3 5 5 354 335 4 2 59 23 332 315 319 9 3 348 325 5 1 296 281 244 237 92 15 328 231 181 216 238 226 200 167 222 186 186 108 71 223 242 252
359 359 0 3 7 9 7 5 356 7 52 67 15 352 344 335 347 87 0 349 25 350 307 302 287 308 18 344 3 356 211 199 227 242 259 139 204 201 202 228 239 251 241 269
358 358 1 3 7 11 16 27 56 18 348 0 354 324 352 331 345 348 4 125 39 5 297 311 287 7 333 325 8 9 340 248 225 251 250 241 264 257 220 218 239 239 259 240
359 0 1 5 5 13 32 41 5 349 359 324 336 10 39 7 348 319 338 6 341 333 283 314 310 340 304 292 332 340 359 272 267 267 263 248 258 255 252 237 241 244 258 259
2 5 5 6 9 17 45 39 13 2 18 355 335 49 351 322 339 294 303 339 319 303 312 311 293 281 267 264 281 297 299 287 230 260 254 251 258 243 236 234 229 233 240 257
7 8 9 10 14 26 36 36 37 17 353 336 324 317 317 317 319 295 295 303 292 301 316 306 285 262 254 250 246 238 249 255 249 265 242 238 258 328 248 237 236 224 246 251
9 9 12 14 13 22 33 40 39 33 307 291 310 327 323 312 313 298 297 296 286 310 302 287 281 245 242 237 236 227 218 229 242 231 224 259 264 260 231 214 244 229 234 245
10 14 18 19 15 11 17 22 15 2 303 304 321 305 301 303 308 311 295 305 302 315 280 251 251 255 301 258 249 226 218 228 219 195 225 234 283 278 259 244 260 246 231 208
16 17 17 17 11 4 6 1 350 341 294 286 314 302 308 299 300 289 300 319 310 307 255 252 253 256 265 253 247 274 187 211 218 225 237 257 283 336 334 206 229 336 228 212
11 10 9 8 4 357 353 351 348 329 296 295 282 292 280 279 269 267 299 309 67 265 255 275 277 273 12 271 266 266 254 235 200 222 234 241 15 296 240 332 319 312 227 199
0 356 359 358 352 347 345 343 344 327 291 280 304 296 287 263 278 274 246 257 295 307 306 318 318 309 270 310 289 349 254 348 306 288 220 352 334 300 302 293 275 299 240 192
349 346 350 349 345 343 338 333 337 328 300 311 312 322 314 305 289 268 239 245 231 222 241 296 301 284 318 281 279 302 171 116 337 337 25 308 314 308 299 298 276 272 225 155
339 342 339 337 339 339 337 333 340 10 319 294 295 328 319 281 292 293 258 260 258 249 267 254 261 280 199 276 298 288 288 240 219 239 272 313 316 333 307 284 281 152 140 140
343 336 334 333 334 335 335 336 36 5 359 290 297 314 292 290 319 299 294 274 249 242 232 215 232 243 253 248 285 269 256 280 256 272 333 300 318 330 179 134 125 126 124 117
339 336 334 332 330 338 343 329 308 345 340 324 299 305 304 308 317 319 306 283 246 208 205 214 233 246 248 265 265 263 283 328 295 290 320 325 326 87 120 111 106 109 113 118
336 333 334 332 328 336 356 348 317 327 324 302 296 286 288 323 326 329 291 285 192 196 208 222 228 217 199 247 260 300 312 320 340 306 274 179 147 72 93 101 102 103 106 102
338 337 336 344 19 339 310 315 327 320 314 293 294 280 305 325 320 316 288 273 210 212 220 222 220 193 218 253 276 323 306 29 58 65 100 123 125 101 102 106 116 114 110 117
345 349 356 3 357 341 321 318 335 319 302 307 293 300 316 326 316 311 304 308 256 201 238 233 200 197 239 295 333 20 77 112 222 30 105 138 113 108 104 118 117 116 113 114
2 360 357 329 328 333 332 354 351 344 316 265 259 278 284 314 326 303 308 301 314 304 79 279 280 40 319 351 106 132 93 53 60 74 92 105 102 108 115 112 111 114 113 106
2 345 315 328 337 357 354 342 21 343 285 264 286 298 307 321 316 309 327 315 331 357 14 360 26 38 18 43 76 82 83 89 79 94 104 105 107 105 105 103 102 101 99 94
347 338 335 355 11 359 359 4 347 10 319 319 316 313 313 311 320 308 338 338 328 42 342 19 32 10 16 39 56 70 75 90 88 90 94 98 99 91 87 91 94 93 91 93
4 6 3 10 1 26 18 326 302 316 308 295 320 324 312 322 330 311 338 13 7 326 18 40 22 2 19 43 67 76 87 81 80 82 86 88 90 89 87 87 82 82 86 88
12 17 21 30 0 332 284 280 280 288 278 303 315 305 327 324 326 349 5 355 359 23 18 25 358 355 13 64 82 92 79 60 60 70 68 72 82 84 86 85 88 86 90 98
36 28 20 345 303 299 301 306 300 311 311 318 314 304 305 304 334 4 330 36 54 18 4 341 338 9 72 89 91 73 20 99 74 54 51 27 44 61 60 70 82 87 86 98
45 48 344 325 309 330 333 330 320 341 334 345 331 314 333 36 357 23 21 38 34 359 325 336 4 41 74 81 111 20 31 352 21 355 3 12 55 59 33 16 23 33 29 340
28 346 345 346 313 318 324 332 335 348 356 36 14 36 14 299 28 45 10 39 338 333 356 16 25 20 25 52 51 37 29 23 53 38 31 27 43 81 87 89 68 70 68 46